Regional Weather Roundup
Issued by NWS

Home | Current Version | Previous Version | Graphics & Text | Print | Product List | Glossary Off
Versions: 1 2 3 4 5 6 7 8 9 10 11 12 13 14 15 16 17 18 19 20 21 22 23 24 25 26 27 28 29 30 31 32 33 34 35 36 37 38 39 40 41 42 43 44 45 46 47 48 49 50

000
ASUS43 KMKX 010211
RWRWI

WISCONSIN REGIONAL WEATHER ROUNDUP
NATIONAL WEATHER SERVICE MILWAUKEE/SULLIVAN WI
900 PM CDT WED AUG 31 2016

NOTE: "FAIR" INDICATES FEW OR NO CLOUDS BELOW 12,000 FEET WITH NO
SIGNIFICANT WEATHER AND/OR OBSTRUCTIONS TO VISIBILITY.

WIZ001-002-006>008-014>016-023>028-010300-
NORTHWEST WISCONSIN

CITY           SKY/WX    TMP DP  RH WIND       PRES   REMARKS
SUPERIOR ARPT  CLEAR     63  60  91 NE3       30.21R
ASHLAND        MOCLDY    59  57  93 CALM      30.20S
HAYWARD        CLOUDY    62  57  83 NE5       30.21R
SIREN          MOCLDY    60  56  88 CALM      30.20R
CUMBERLAND     MOCLDY    61  54  77 CALM      30.20R
RICE LAKE      CLEAR     58  56  92 N3        30.21R FOG
CHETEK         NOT AVBL
LADYSMITH      CLOUDY    62  56  81 NE6       30.22R
EAU CLAIRE     PTCLDY    63  56  78 N6        30.17R
MENOMONIE      CLEAR     64  55  72 N3        30.18R
NEW RICHMOND   CLEAR     60  55  84 CALM      30.19R
OSCEOLA        CLEAR     61  58  88 CALM      30.22R
$$

WIZ003>005-009-010-017-018-010300-
NORTH CENTRAL WISCONSIN

CITY           SKY/WX    TMP DP  RH WIND       PRES   REMARKS
MANITOWISH WTR NOT AVBL
ARBOR VITAE    CLEAR     59  56  87 CALM      30.21R
WOODRUFF       CLEAR     59  56  87 CALM      30.21R
RHINELANDER    MOCLDY    59  53  80 CALM      30.21R
EAGLE RIVER    PTCLDY    58  51  79 N3        30.20R
LAND O LAKES   CLOUDY    57  54  89 N3        30.22R
PHILLIPS       CLOUDY    61  53  75 N5        30.21R
TOMAHAWK       CLOUDY    55  51  87 CALM      30.21R
MEDFORD        PTCLDY    55  55 100 N3        30.20R
MERRILL        CLEAR     57  53  85 N7        30.20R
$$

WIZ029-030-035-036-043>047-010300-
CENTRAL WISCONSIN

CITY           SKY/WX    TMP DP  RH WIND       PRES   REMARKS
WAUSAU         CLEAR     63  53  70 N3        30.17R
MOSINEE        CLEAR     63  54  72 N6        30.18
MARSHFIELD     CLEAR     66  52  60 NE9       30.17R
STEVENS POINT  CLEAR     62  53  74 N3        30.17R
WAUPACA        MOCLDY    69  56  65 CALM      30.15R
WAUTOMA        PTCLDY    62  58  86 CALM      30.14R
WISC RAPIDS    PTCLDY    66  56  70 NE7       30.17R
CAMP DOUGLAS   PTCLDY    55  54  94 W3        30.14R
$$

WIZ011>013-019>022-031-037>040-048>050-010300-
NORTHEAST WISCONSIN

CITY           SKY/WX    TMP DP  RH WIND       PRES   REMARKS
ANTIGO         CLEAR     57  52  83 CALM      30.19R
SHAWANO        MOCLDY    67  58  71 N6        30.16R
OCONTO         NOT AVBL
STURGEON BAY   CLOUDY    65  56  72 N8        30.14R
GREEN BAY      CLEAR     62  60  93 N5        30.14R
MANITOWOC      CLEAR     61  56  83 CALM      30.14R
APPLETON       MOCLDY    64  54  68 N7        30.13R
CLINTONVILLE   CLOUDY    66  54  63 N3        30.15R
OSHKOSH        CLEAR     70  55  59 NE8       30.13R
$$

WIZ032>034-041-042-053>061-010300-
SOUTHWEST WISCONSIN

CITY           SKY/WX    TMP DP  RH WIND       PRES   REMARKS
LA CROSSE      CLEAR     64  59  83 N3        30.15R
SPARTA         CLEAR     58  57  95 E3        30.16R
VIROQUA        CLEAR     62  57  84 N5        30.16R
BOSCOBEL       CLEAR     62  60  93 CALM      30.14R
PRAIRIE DU CHI CLEAR     65  58  78 CALM      30.14R
PLATTEVILLE    CLEAR     64  62  95 CALM      30.14R
$$

WIZ056-057-062-063-064-067-068-010300-
SOUTH CENTRAL WISCONSIN

CITY           SKY/WX    TMP DP  RH WIND       PRES   REMARKS
REEDSBURG      NOT AVBL
BARABOO/DELLS  CLEAR     62  55  76 CALM      30.14R
LONE ROCK      CLEAR     63  58  83 CALM      30.14R
MINERAL POINT  CLEAR     64  59  82 CALM      30.14R
MADISON        PTCLDY    62  58  86 CALM      30.12R
MIDDLETON      MOCLDY    62  61  96 W3        30.13R
WATERTOWN      CLEAR     61  58  90 CALM      30.12R
MONROE         PTCLDY    68  55  64 N3        30.13R
JANESVILLE     CLEAR     66  57  72 NE6       30.11R
$$

WIZ051-052-058>065-066-070>072-010300-
SOUTHEAST WISCONSIN

CITY           SKY/WX    TMP DP  RH WIND       PRES   REMARKS
MILWAUKEE      PTCLDY    67  57  70 N5        30.12R
WAUKESHA       CLEAR     63  52  67 NE3       30.14R
MILWAUKEE/TIMM CLEAR     66  52  59 NE3       30.12S
RACINE         CLEAR     64  57  78 N6        30.13R
BURLINGTON     CLEAR     58  56  94 CALM      30.13R
KENOSHA        CLEAR     63  56  78 N6        30.12R
FOND DU LAC    CLEAR     62  57  83 CALM      30.13R
SHEBOYGAN      CLEAR     60  54  80 CALM      30.13R
WEST BEND      CLEAR     59  55  88 CALM      30.13R
JUNEAU         CLEAR     62  58  84 CALM      30.14R
$$

LSZ147-162-010300-
LAKE SUPERIOR

STATION/POSITION TIME  TEMP    WIND        PRES    WAVE
                       AIR SEA DIR/SP/G            HT/PER
                 (UTC) (F)     (DEG/KT/KT) (MB)    (FT/S)
W MID LAKE BUOY  0150   67 68  330/  6/  6 1022.1R   0
DEVILS ISLAND    0200   67     270/  2/  2 1022.7R
PORT WING        0100   68      CALM  /  2 1022.4
SAXON HARBOR     0140   61     170/  2/  3 1022.4R
$$

LMZ867-665-643>646-010300-
LAKE MICHIGAN

STATION/POSITION TIME  TEMP    WIND        PRES    WAVE
                       AIR SEA DIR/SP/G            HT/PER
                 (UTC) (F)     (DEG/KT/KT) (MB)    (FT/S)
CHAMBERS ISLAND  0100   69     340/ 15/ 18 1020.0R
S GREEN BAY BUOY 0100   70 72   50/ 14/ 17 1019.2
N MID LAKE BUOY  0150   67 71  350/ 17/ 19 1019.1R   3/ 5
NORTHPORT PIER   0100   68     350/ 17/ 19 1019.6R
SISTER BAY       0107   68     350/ 17/ 20   N/A
ALGOMA LAKESHORE 0000           40/  3/  5   N/A
KEWAUNEE LAKESHO 0100   67                 1019.4
SHEBOYGAN LAKESH 0200   66     360/  6/  6 1019.8R
PORT WASHINGTON  0100   68     350/  2/  3 1020.3R
ATWATER BUOY     0100   65 65  350/  6/  8   N/A
MILWAUKEE LAKESH 0110   68      10/  6/  7   N/A
S MID LAKE BUOY  0150   72 74   30/ 19/ 23 1017.9R   6/ 7
KENOSHA   LAKESH 0200   69     360/ 10/ 11 1019.3R
$$

TC  - TEMPERATURE IN CELSIUS
VSB - VISIBILITY IN STATUTE MILES
WCI - WIND CHILL INDEX
HX  - HEAT INDEX





USA.gov is the U.S. government's official web portal to all federal, state and local government web resources and services.